Northeast Philadelphia, PA

2:05 AM EDT on March 26, 2017 (GMT -0400)
Northeast Philadelphia

Weather History for KPNE - July, 2013

Change the Weather History Date:

Tuesday, July 16, 2013

  Actual Average Record
Temperature  
Mean Temperature 84 °F -  
Max Temperature 93 °F 83 °F 97 °F (1997)
Min Temperature 77 °F 64 °F 63 °F (2000)
Cooling Degree Days 19    
Growing Degree Days 34 (Base 50)    
Moisture  
Dew Point 69 °F    
Average Humidity 60    
Maximum Humidity 82    
Minimum Humidity 41    
Precipitation  
Precipitation 0.00 in - - ()
Sea Level Pressure  
Sea Level Pressure 30.19 in    
Wind  
Wind Speed 7 mph (North)    
Max Wind Speed 15 mph    
Max Gust Speed 25 mph    
Visibility 10 miles    
Events      
Averages and records for this station are not official NWS values.
T = Trace of Precipitation, MM = Missing Value Source: NWS Daily Summary

Daily Weather History Graph

Daily Weather History Graph

Search for Another Location

Airport or City:

Trip Planner

Search our weather history database for the weather conditions in past years. The results will help you decide how hot, cold, wet, or windy it might be!

Date:

Astronomy

Jul. 16, 2013 Rise Set
Actual Time 5:44 AM EDT 8:27 PM EDT
Civil Twilight 5:12 AM EDT 8:59 PM EDT
Nautical Twilight 4:32 AM EDT 9:38 PM EDT
Astronomical Twilight 3:47 AM EDT 10:23 PM EDT
Moon 2:06 PM EDT (7/16) 12:12 AM EDT (7/16)
Length of Visible Light 15h 46m
Length of Day
14h 42m
First Quarter, 56% of the Moon is Illuminated
Jul 16
First Quarter
Jul 22
Full
Jul 29
Last Quarter
Aug 6
New
Aug 14
First Quarter

Hourly Weather History & Observations

Time (EDT) Temp. Heat Index Dew Point Humidity Pressure Visibility Wind Dir Wind Speed Gust Speed Precip Events Conditions
12:54 AM 81.0 °F 85.8 °F 73.0 °F 77% 30.19 in 10.0 mi NW 4.6 mph - N/A   Clear
1:54 AM 81.0 °F 85.8 °F 73.0 °F 77% 30.18 in 10.0 mi NW 5.8 mph - N/A   Clear
2:54 AM 80.1 °F 83.8 °F 72.0 °F 76% 30.18 in 10.0 mi NNW 6.9 mph - N/A   Clear
3:54 AM 78.1 °F - 71.1 °F 79% 30.18 in 10.0 mi NNW 5.8 mph - N/A   Clear
4:54 AM 77.0 °F - 71.1 °F 82% 30.18 in 10.0 mi NNW 6.9 mph - N/A   Clear
5:54 AM 77.0 °F - 69.1 °F 76% 30.20 in 9.0 mi NNW 6.9 mph - N/A   Clear
6:54 AM 78.1 °F - 68.0 °F 71% 30.22 in 10.0 mi NNW 8.1 mph - N/A   Clear
7:54 AM 80.1 °F 82.3 °F 66.9 °F 64% 30.22 in 10.0 mi North 12.7 mph - N/A   Clear
8:54 AM 82.9 °F 85.8 °F 68.0 °F 60% 30.23 in 10.0 mi North 9.2 mph - N/A   Clear
9:54 AM 84.9 °F 87.6 °F 66.9 °F 55% 30.22 in 10.0 mi North 13.8 mph - N/A   Clear
10:54 AM 88.0 °F 92.1 °F 69.1 °F 53% 30.22 in 10.0 mi NNE 15.0 mph - N/A   Clear
11:54 AM 90.0 °F 93.6 °F 68.0 °F 48% 30.21 in 10.0 mi Variable 6.9 mph - N/A   Clear
12:54 PM 91.0 °F 92.6 °F 64.0 °F 41% 30.20 in 10.0 mi NNW 13.8 mph 20.7 mph N/A   Clear
1:54 PM 91.9 °F 94.5 °F 66.0 °F 42% 30.19 in 10.0 mi North 12.7 mph 19.6 mph N/A   Clear
2:54 PM 91.9 °F 94.5 °F 66.0 °F 42% 30.18 in 10.0 mi North 15.0 mph 25.3 mph N/A   Clear
3:54 PM 90.0 °F 92.8 °F 66.9 °F 46% 30.17 in 10.0 mi North 12.7 mph - N/A   Clear
4:54 PM 91.9 °F 95.4 °F 66.9 °F 44% 30.16 in 10.0 mi North 9.2 mph - N/A   Clear
5:54 PM 91.9 °F 95.4 °F 66.9 °F 44% 30.15 in 10.0 mi NE 9.2 mph - N/A   Partly Cloudy
6:54 PM 90.0 °F 93.6 °F 68.0 °F 48% 30.15 in 10.0 mi NNE 8.1 mph - N/A   Clear
7:54 PM 88.0 °F 92.1 °F 69.1 °F 53% 30.17 in 10.0 mi North 4.6 mph - N/A   Clear
8:54 PM 84.9 °F 88.2 °F 68.0 °F 57% 30.17 in 10.0 mi Calm Calm - N/A   Clear
9:54 PM 82.0 °F 85.5 °F 69.1 °F 65% 30.19 in 10.0 mi Calm Calm - N/A   Clear
10:54 PM 82.0 °F 85.5 °F 69.1 °F 65% 30.19 in 10.0 mi Calm Calm - N/A   Clear
11:54 PM 80.1 °F 82.9 °F 69.1 °F 69% 30.18 in 10.0 mi Calm Calm - N/A   Clear